AC5JC-1 Weather Reports


Display with metric or nautical units.
time (UTC)temp
F
wind
direction
speed
MPH
gust
MPH
rain 1hr
in
rain 24hr
in
rain mn
in
humidity
%
barometer
mb
20260503203555 83 147 2.0 3.0 0.00 0.00 0.00 37 1017.9
20260503203036 83 152 1.0 3.0 0.00 0.00 0.00 36 1017.9
20260503202555 83 164 1.0 5.0 0.00 0.00 0.00 37 1018.0
20260503202035 82 139 1.0 3.0 0.00 0.00 0.00 36 1018.1
20260503201556 82 215 2.0 3.0 0.00 0.00 0.00 36 1018.2
20260503201035 83 164 2.0 3.0 0.00 0.00 0.00 37 1018.3
20260503200526 83 186 2.0 3.0 0.00 0.00 0.00 38 1018.3
20260503200110 82 145 1.0 3.0 0.00 0.00 0.00 36 1018.4
20260503195550 82 154 1.0 3.0 0.00 0.00 0.00 37 1018.4
20260503195050 82 158 2.0 5.0 0.00 0.00 0.00 36 1018.7
20260503194614 82 154 1.0 3.0 0.00 0.00 0.00 37 1018.6
20260503194054 82 140 1.0 2.0 0.00 0.00 0.00 40 1018.7
20260503193534 82 165 1.0 2.0 0.00 0.00 0.00 38 1018.8
20260503193118 82 112 1.0 2.0 0.00 0.00 0.00 39 1018.9
20260503192558 81 202 1.0 3.0 0.00 0.00 0.00 40 1019.1
20260503192034 80 114 1.0 3.0 0.00 0.00 0.00 40 1019.2
20260503191622 81 124 1.0 1.0 0.00 0.00 0.00 42 1019.2
20260503191102 81 165 1.0 3.0 0.00 0.00 0.00 39 1019.2
20260503190535 82 176 2.0 5.0 0.00 0.00 0.00 39 1019.4
20260503190023 82 163 2.0 3.0 0.00 0.00 0.00 41 1019.4
20260503185606 82 178 1.0 3.0 0.00 0.00 0.00 40 1019.5
20260503185115 82 161 1.0 2.0 0.00 0.00 0.00 42 1019.6
20260503184548 81 199 1.0 3.0 0.00 0.00 0.00 40 1019.7
20260503184110 81 164 2.0 3.0 0.00 0.00 0.00 41 1019.8
20260503183550 81 137 1.0 2.0 0.00 0.00 0.00 42 1019.8
20260503183050 81 172 2.0 3.0 0.00 0.00 0.00 42 1019.9
20260503182614 80 127 1.0 2.0 0.00 0.00 0.00 42 1019.9
20260503182054 80 224 3.0 6.0 0.00 0.00 0.00 44 1019.9
20260503181535 80 174 1.0 2.0 0.00 0.00 0.00 41 1020.2
20260503181118 80 141 1.0 2.0 0.00 0.00 0.00 40 1020.3
20260503180558 81 171 1.0 3.0 0.00 0.00 0.00 43 1020.3
20260503180035 80 84 1.0 3.0 0.00 0.00 0.00 45 1020.4
20260503175642 80 209 2.0 2.0 0.00 0.00 0.00 45 1020.5
20260503175103 80 147 1.0 3.0 0.00 0.00 0.00 44 1020.5
20260503174535 79 145 2.0 3.0 0.00 0.00 0.00 45 1020.6
20260503174023 79 131 2.0 3.0 0.00 0.00 0.00 46 1020.7
20260503173606 79 154 1.0 2.0 0.00 0.00 0.00 47 1020.9
20260503173035 79 175 2.0 3.0 0.00 0.00 0.00 49 1020.8
20260503172527 79 143 1.0 3.0 0.00 0.00 0.00 47 1020.9
20260503172110 79 143 1.0 3.0 0.00 0.00 0.00 48 1021.0
20260503171550 79 117 1.0 2.0 0.00 0.00 0.00 49 1021.1
20260503171030 78 136 1.0 2.0 0.00 0.00 0.00 49 1021.1
20260503170614 78 139 2.0 2.0 0.00 0.00 0.00 49 1021.2
20260503150527 72 145 1.0 2.0 0.00 0.00 0.00 56 1021.8
20260503150110 72 110 1.0 1.0 0.00 0.00 0.00 59 1021.7
20260503131031 60 100 0.0 1.0 0.00 0.00 0.00 78 1021.4
20260503130614 59 0.0 0.0 0.00 0.00 0.00 80 1021.3
20260503110527 54 0.0 0.0 0.00 0.00 0.00 86 1020.5
20260503110111 54 0.0 0.0 0.00 0.00 0.00 85 1020.3
20260503100131 55 0.0 0.0 0.00 0.00 0.00 82 1020.3
20260503081536 55 0.0 0.0 0.00 0.00 0.00 82 1020.3
20260503081031 55 0.0 0.0 0.00 0.00 0.00 82 1020.3
20260503080615 56 0.0 0.0 0.00 0.00 0.00 81 1020.3
20260503072535 57 0.0 0.0 0.00 0.00 0.00 81 1020.5
20260503072035 57 0.0 0.0 0.00 0.00 0.00 81 1020.6
20260503071536 56 0.0 0.0 0.00 0.00 0.00 81 1020.7
20260503071031 56 0.0 0.0 0.00 0.00 0.00 82 1020.7
20260503070615 56 0.0 0.0 0.00 0.00 0.00 83 1020.7
20260503055034 57 0.0 0.0 0.00 0.00 0.00 84 1020.6
20260503054535 57 0.0 0.0 0.00 0.00 0.00 83 1020.5
20260503054034 57 98 0.0 1.0 0.00 0.00 0.00 83 1020.5
20260503053535 58 0.0 0.0 0.00 0.00 0.00 83 1020.6
20260503053035 58 0.0 0.0 0.00 0.00 0.00 82 1020.5
20260503052535 58 0.0 0.0 0.00 0.00 0.00 81 1020.4
20260503052034 58 0.0 0.0 0.00 0.00 0.00 81 1020.4
20260503051535 59 0.0 0.0 0.00 0.00 0.00 80 1020.3
20260503051034 59 99 0.0 1.0 0.00 0.00 0.00 80 1020.4
20260503050555 59 97 0.0 1.0 0.00 0.00 0.00 80 1020.2
20260503050116 59 0.0 0.0 0.00 0.00 0.00 80 1020.1
20260503045534 59 0.0 0.0 0.00 0.00 0.00 80 1020.1
20260503045034 59 96 0.0 1.0 0.00 0.00 0.00 80 1020.2
20260503044527 59 97 0.0 1.0 0.00 0.00 0.00 80 1020.2
20260503044111 59 0.0 0.0 0.00 0.00 0.00 79 1020.2
20260503043611 59 95 0.0 1.0 0.00 0.00 0.00 79 1020.2
20260503043031 60 96 0.0 1.0 0.00 0.00 0.00 78 1020.2
20260503042615 60 96 0.0 1.0 0.00 0.00 0.00 78 1020.2
20260503042115 60 96 0.0 1.0 0.00 0.00 0.00 78 1020.1
20260503041535 60 95 0.0 1.0 0.00 0.00 0.00 78 1020.2
20260503041119 60 0.0 0.0 0.00 0.00 0.00 77 1020.3
20260503040559 60 93 0.0 1.0 0.00 0.00 0.00 77 1020.2
20260503040039 61 93 0.0 1.0 0.00 0.00 0.00 76 1020.2
20260503035519 61 91 0.0 1.0 0.00 0.00 0.00 76 1020.3
20260503035104 61 0.0 0.0 0.00 0.00 0.00 76 1020.2
20260503034544 61 0.0 0.0 0.00 0.00 0.00 76 1020.2
20260503034023 61 0.0 0.0 0.00 0.00 0.00 76 1020.3
20260503033607 60 91 0.0 1.0 0.00 0.00 0.00 76 1020.3
20260503033047 61 0.0 0.0 0.00 0.00 0.00 76 1020.2
20260503032527 61 0.0 0.0 0.00 0.00 0.00 75 1020.2
20260503032111 61 0.0 0.0 0.00 0.00 0.00 75 1020.1
20260503031552 61 0.0 0.0 0.00 0.00 0.00 75 1020.1
20260503031031 61 0.0 0.0 0.00 0.00 0.00 74 1020.1
20260503030615 61 0.0 0.0 0.00 0.00 0.00 73 1019.9
20260503030115 62 0.0 0.0 0.00 0.00 0.00 72 1019.9
20260503025534 62 0.0 0.0 0.00 0.00 0.00 71 1020.0
20260503025139 62 0.0 0.0 0.00 0.00 0.00 71 1019.9
20260503024559 62 0.0 0.0 0.00 0.00 0.00 70 1019.9
20260503024039 63 0.0 0.0 0.00 0.00 0.00 69 1020.0
20260503023539 63 91 0.0 1.0 0.00 0.00 0.00 69 1019.8
20260503023103 63 91 0.0 1.0 0.00 0.00 0.00 69 1019.7
20260503022543 64 0.0 0.0 0.00 0.00 0.00 67 1019.7
20260503022024 64 0.0 0.0 0.00 0.00 0.00 67 1019.6
20260503021607 63 0.0 0.0 0.00 0.00 0.00 67 1019.4
20260503021046 64 0.0 0.0 0.00 0.00 0.00 68 1019.6
20260503020528 64 0.0 0.0 0.00 0.00 0.00 68 1019.6
20260503020111 64 90 0.0 1.0 0.00 0.00 0.00 68 1019.5
20260503015551 64 0.0 0.0 0.00 0.00 0.00 67 1019.5
20260503015031 64 0.0 0.0 0.00 0.00 0.00 66 1019.4
20260503014615 64 0.0 0.0 0.00 0.00 0.00 66 1019.4
20260503014055 64 0.0 0.0 0.00 0.00 0.00 66 1019.4
20260503013555 65 0.0 0.0 0.00 0.00 0.00 66 1019.2
20260503013119 65 0.0 0.0 0.00 0.00 0.00 66 1019.4
20260503012559 66 0.0 0.0 0.00 0.00 0.00 64 1019.4
20260503012038 66 0.0 0.0 0.00 0.00 0.00 63 1019.3
20260503011520 67 0.0 0.0 0.00 0.00 0.00 63 1019.3
20260503011103 67 0.0 0.0 0.00 0.00 0.00 62 1019.2
20260503010543 68 0.0 0.0 0.00 0.00 0.00 61 1019.2
20260503010034 68 0.0 0.0 0.00 0.00 0.00 59 1019.2
20260503005534 69 0.0 0.0 0.00 0.00 0.00 59 1019.3
20260503005034 69 0.0 0.0 0.00 0.00 0.00 57 1019.1
20260503004535 70 0.0 0.0 0.00 0.00 0.00 55 1019.1
20260503004034 70 0.0 0.0 0.00 0.00 0.00 55 1019.1
20260503003534 70 0.0 0.0 0.00 0.00 0.00 55 1019.1
20260503003032 71 0.0 0.0 0.00 0.00 0.00 54 1019.2
20260503002615 72 0.0 0.0 0.00 0.00 0.00 53 1019.1
20260503002055 72 0.0 0.0 0.00 0.00 0.00 52 1019.0
20260503001535 73 0.0 0.0 0.00 0.00 0.00 51 1019.0
20260503001035 73 88 0.0 1.0 0.00 0.00 0.00 48 1019.1
20260503000535 74 84 0.0 1.0 0.00 0.00 0.00 47 1019.1
20260503000115 75 0.0 0.0 0.00 0.00 0.00 48 1019.2
20260502235555 76 111 0.0 1.0 0.00 0.00 0.00 44 1019.2
20260502235119 77 0.0 0.0 0.00 0.00 0.00 42 1019.2
20260502234559 78 51 0.0 1.0 0.00 0.00 0.00 41 1019.2
20260502234055 78 89 0.0 1.0 0.00 0.00 0.00 41 1019.2
20260502233615 78 90 0.0 1.0 0.00 0.00 0.00 41 1019.2
20260502233032 78 38 1.0 2.0 0.00 0.00 0.00 39 1019.3
20260502232615 78 131 0.0 1.0 0.00 0.00 0.00 41 1019.3
20260502232055 78 70 1.0 2.0 0.00 0.00 0.00 40 1019.4
20260502231555 78 91 1.0 2.0 0.00 0.00 0.00 40 1019.3
20260502231139 78 99 0.0 1.0 0.00 0.00 0.00 40 1019.4
20260502230544 79 129 1.0 1.0 0.00 0.00 0.00 41 1019.4
20260502230025 79 123 0.0 1.0 0.00 0.00 0.00 40 1019.5
20260502225610 79 78 0.0 1.0 0.00 0.00 0.00 40 1019.4
20260502225034 79 67 1.0 2.0 0.00 0.00 0.00 40 1019.4
20260502224556 79 54 0.0 1.0 0.00 0.00 0.00 41 1019.3
20260502224024 78 117 0.0 1.0 0.00 0.00 0.00 41 1019.3
20260502223607 78 120 0.0 2.0 0.00 0.00 0.00 39 1019.4
20260502223048 78 146 1.0 2.0 0.00 0.00 0.00 41 1019.5
20260502222534 78 175 1.0 2.0 0.00 0.00 0.00 41 1019.6
20260502222034 79 44 1.0 2.0 0.00 0.00 0.00 40 1019.5
20260502221555 79 62 1.0 2.0 0.00 0.00 0.00 41 1019.6
20260502221032 79 76 0.0 1.0 0.00 0.00 0.00 40 1019.7
20260502220635 78 170 1.0 2.0 0.00 0.00 0.00 41 1019.7
20260502220055 78 70 1.0 3.0 0.00 0.00 0.00 42 1019.7
20260502215535 78 79 1.0 2.0 0.00 0.00 0.00 42 1019.7
20260502215034 78 88 1.0 2.0 0.00 0.00 0.00 41 1019.8
20260502214534 78 72 1.0 3.0 0.00 0.00 0.00 42 1019.8
20260502214023 78 333 2.0 3.0 0.00 0.00 0.00 43 1019.8
20260502213607 78 346 1.0 3.0 0.00 0.00 0.00 42 1020.0
20260502213048 78 19 1.0 2.0 0.00 0.00 0.00 43 1020.0
20260502212534 77 72 1.0 1.0 0.00 0.00 0.00 44 1020.1
20260502212035 77 62 2.0 3.0 0.00 0.00 0.00 43 1020.3
20260502211535 77 44 1.0 3.0 0.00 0.00 0.00 43 1020.4
20260502211032 77 123 1.0 2.0 0.00 0.00 0.00 42 1020.4
20260502210615 78 266 1.0 3.0 0.00 0.00 0.00 41 1020.5
20260502210055 77 63 1.0 3.0 0.00 0.00 0.00 43 1020.6
20260502205535 77 143 1.0 2.0 0.00 0.00 0.00 43 1020.6
20260502205034 77 316 2.0 5.0 0.00 0.00 0.00 42 1020.5
20260502204535 77 320 1.0 3.0 0.00 0.00 0.00 43 1020.6
20260502204054 77 97 1.0 1.0 0.00 0.00 0.00 43 1020.7